Pour une meilleure expérience, merci d'orienter votre écran en mode paysage.

rotate

Club de Triathlon : MASSILIA TRIATHLON

Le club de Triathlon MASSILIA TRIATHLON se situe dans la ville de MARSEILLE (13 - Bouches-du-Rhône). Le club est affilié à la ligue régionale PROVENCE-ALPES-CÔTE D'AZUR de la FFTRI - Fédération Française de Triathlon. Retrouvez ici toute l'activité du club de Triathlon MASSILIA TRIATHLON - Résultats, podiums, objectifs, effectifs....

Site internet : https://massiliatri.com

Résultats de la saison en cours

CltClt FDateEpreuveNomIPRNbTempsGAClt/GAIP
250 16/10/2022Triathlon de Saint Cyr sur Mer (83) - M Pierre DENIEULLE03613h16'49''MSE11729Sa course
56 16/10/2022Triathlon de Saint Cyr sur Mer (83) - L Alain AIELLO70955h57'25''MVE3138Sa course
418 09/10/2022Sardines Titus Triathlon (13) - M Sébastien SAVARY04853h52'53''MV14211Sa course
71 09/10/2022Sardines Titus Triathlon (13) - M Cyril CALY744852h52'05''MSE3786Sa course
99 09/10/2022Sardines Titus Triathlon (13) - M Alain AIELLO704852h57'48''MV5180Sa course
79 09/10/2022Sardines Titus Triathlon (13) - M François EXPOSITO564852h54'31''MV11085Sa course
195 09/10/2022Sardines Titus Triathlon (13) - M Christophe CYPCURA04853h13'11''MV32059Sa course
36 08/10/2022Sardines Titus Triathlon (13) - Aquathlon XS Jean-david LONG617418'54''M SM 354Sa course
1592202/10/2022Triathlon de Carqueiranne (83) - S Léa GUYON322991h32'57''FS3748Sa course
77 02/10/2022Triathlon de Carqueiranne (83) - S Jean-david LONG612991h24'09''MS4976Sa course
46 02/10/2022Triathlon de Carqueiranne (83) - S Cyril CALY742991h21'26''MS31087Sa course
89 02/10/2022Triathlon de Carqueiranne (83) - S Thomas LE GOFF02991h25'32''MS31571Sa course
76 02/10/2022Triathlon de Carqueiranne (83) - S Patrick MANZI532991h24'07''MV3876Sa course
6 02/10/2022Triathlon de Carqueiranne (83) - S Guillaume GONZALEZ02991h11'47''MS21156Sa course
86502/10/2022Triathlon de Carqueiranne (83) - S Amandine GRIMARD632991h25'28''FS3172Sa course
128 02/10/2022Triathlon de Carqueiranne (83) - S Nicolas LUDMANN402991h29'36''MV21658Sa course
15 02/10/2022Triathlon de Carqueiranne (83) - S Clément ALLARD872991h14'52''MS23101Sa course
79 02/10/2022Triathlon de Carqueiranne (83) - S Alain AIELLO702991h24'21''MV5475Sa course
65 02/10/2022Triathlon de Carqueiranne (83) - S François EXPOSITO562991h23'20''MV11380Sa course
121 02/10/2022Triathlon de Carqueiranne (83) - S Christophe CYPCURA02991h28'35''MV31260Sa course
10 02/10/2022BayMan (50) - Triathlon M Laurent MARTIN724032h23'38''MV21116Sa course
8 02/10/2022Triathlon de Carqueiranne (83) - S Robin CABARET952991h12'25''MS33135Sa course
108 02/10/2022Triathlon de Roquebrune Cap Martin (06) - S Alain SCHMITT01291h56'13''MV4717Sa course
100 02/10/2022Triathlon de Carqueiranne (83) - S Laurent MARTIN722991h26'25''MV4568Sa course
237 02/10/2022Triathlon de Carqueiranne (83) - S Sébastien SAVARY02991h43'10''MV14021Sa course
11 25/09/2022Istr'M (13) - Triathlon M Robin CABARET95922h13'23''MS3392Sa course
71 25/09/2022Triathlon de la Corniche d'Or (83) - M Jean philippe BOUSQUET814972h34'47''MV1787Sa course
26 25/09/2022Istr'M (13) - Triathlon M Jean-david LONG61922h34'37''MS41073Sa course
118 18/09/2022VentouxMan (84) - Triathlon L Yann LEROOY03037h08'54''MS22561Sa course
19 18/09/2022VentouxMan (84) - Triathlon L Romain TARENNE1013035h52'30''MS4298Sa course
490 18/09/2022Triathlon Audencia La Baule (44) - M Laurent BACHELIER09012h43'44''MV26145Sa course
60 10/09/2022Triathlon de Dinard Côte d'Emeraude (35) - L Laurent MARTIN725904h45'27''MVE2292Sa course
353 10/09/2022Triathlon de Toulouse (31) - S Alain SCHMITT04991h47'58''MV41430Sa course
86 04/09/2022Triathlon de Saint Gilles Croix de Vie (85) - S Laurent BACHELIER02541h21'49''MVE1067Sa course
7 04/09/2022Triathlon de Carentan (50) - S Laurent MARTIN722491h13'34''MV21138Sa course
119 28/08/2022EDF VercorsMan (26) - Triathlon S Alain AIELLO703221h38'50''MV5263Sa course
142 27/08/2022EDF VercorsMan (26) - Triathlon XL Alain AIELLO702548h28'57''MV5243Sa course
22 27/08/2022EDF VercorsMan Défi (26) - XL + S Alain AIELLO703110h07'47''033Sa course
3302221/08/2022IronMan de Vichy (03) - Triathlon XXL Estelle MOLAS6896410h42'58''F30-34664Sa course
87 21/08/2022Triathlon du Mont Blanc (74) - L Florian PANNIER703005h30'54''070Sa course
45 20/08/2022Triathlon du Mont Blanc (74) - M Julien LORENZO865432h44'20''094Sa course
26 09/07/2022Triathlon des Gorges - Ardèche et Gard (07) - L Léo HERMOUET04623h12'52''MS3998Sa course
83 09/07/2022Triathlon des Gorges - Ardèche et Gard (07) - L Jean philippe BOUSQUET814623h27'22''MV11483Sa course
232 09/07/2022Triathlon des Gorges - Ardèche et Gard (07) - L Alain AIELLO704623h53'32''MV5249Sa course
169 07/07/2022Triathlon des Gorges - Ardèche et Gard (07) - M Alain AIELLO705862h12'44''MVE6172Sa course
46 03/07/2022Triathlon d'Embrun (05) - L Guillaume GONZALEZ04115h18'47''MS21690Sa course
352 03/07/2022Triathlon d'Embrun (05) - L François EXPOSITO564117h26'48''MV1439Sa course
79 03/07/2022Triathlon d'Embrun (05) - L Julien LORENZO864115h32'18''MS41381Sa course
57 03/07/2022Triathlon d'Embrun (05) - L Clément ALLARD874115h22'01''MS21887Sa course
102 03/07/2022Triathlon d'Embrun (05) - L Pierre CAMINADE04115h43'00''MS42175Sa course
22 03/07/2022Triathlon d'Embrun (05) - L Romain TARENNE1014115h00'04''MS4499Sa course
116 03/07/2022Champ'Man (51) - Triathlon L Nicolas LUDMANN402395h31'27''MV21749Sa course
312 03/07/2022Triathlon d'Embrun (05) - L Patrick MANZI534117h03'44''MV33220Sa course
2533303/07/2022Triathlon d'Embrun (05) - L Léa GUYON324116h36'55''FS3635Sa course
197 03/07/2022Triathlon d'Embrun (05) - L Cyril CALY744116h17'18''MS33050Sa course
170 02/07/2022Triathlon d'Embrun (05) - M Anton FERT425573h04'40''MS33869Sa course
126 26/06/2022Triathlon de Saint Jean de Monts (85) - S Laurent BACHELIER02751h21'24''MV21354Sa course
38 25/06/2022Aquathlon des Oranges Pressées (84) - S Clément ALLARD8710738'04''066Sa course
67925/06/2022Aquathlon des Oranges Pressées (84) - S Léa GUYON3210742'29''039Sa course
53 25/06/2022Aquathlon des Oranges Pressées (84) - S Cyril CALY7410740'17''052Sa course
27 25/06/2022Aquathlon des Oranges Pressées (84) - S Guillaume GONZALEZ010735'34''077Sa course
711225/06/2022Aquathlon des Oranges Pressées (84) - S Alice HERMET010743'50''035Sa course
68 25/06/2022Aquathlon des Oranges Pressées (84) - S François EXPOSITO5610742'49''038Sa course
100 25/06/2022Aquathlon des Oranges Pressées (84) - S Laurent BACHELIER010751'24''08Sa course
74 19/06/2022Triathlon de Carpentras (84) - S en CLM Thomas LE GOFF01741h11'04''MS31558Sa course
1414019/06/2022Triathlon de Carpentras (84) - S en CLM Alice HERMET01741h22'50''FS21318Sa course
19 19/06/2022Triathlon de Carpentras (84) - S en CLM Romain TARENNE1011741h05'16''MS4693Sa course
1041319/06/2022Triathlon de Carpentras (84) - S en CLM Estelle MOLAS681741h16'16''FS3540Sa course
1494619/06/2022Triathlon de Carpentras (84) - S en CLM Léa GUYON321741h25'17''FS31114Sa course
16 19/06/2022Triathlon de Carpentras (84) - S en CLM Guillaume GONZALEZ01741h05'03''MS2395Sa course
76 05/06/2022Triathlon des Gorges de la Loire (42) - M Anton FERT421712h50'32''MSE3157Sa course
54 04/06/2022Triathlon de Noirmoutier (85) - S Laurent BACHELIER01561h21'07''MV2567Sa course
178 29/05/2022Triathlon de Dijon (21) - L Laurent MARTIN723205h20'10''MVE9443Sa course
69 29/05/2022Triathlon de l'Ail (84) - S Cyril CALY742081h03'37''HS31767Sa course
186 29/05/2022Triathlon de l'Ail (84) - S Sébastien SAVARY02081h26'28''HV1159Sa course
1426129/05/2022Triathlon de l'Ail (84) - S Alice HERMET02081h16'23''FS21231Sa course
1541429/05/2022Triathlon de l'Ail (84) - S Léa GUYON322081h17'43''FS3925Sa course
48 29/05/2022Triathlon de l'Ail (84) - S Guillaume GONZALEZ02081h01'57''HS2678Sa course
61 29/05/2022Triathlon de l'Ail (84) - S Clément ALLARD872081h02'50''HS21071Sa course
82 28/05/2022Triathlon de Porticcio (20) - L Jean laurent GARNIER351007h44'28''MVE448Sa course
6383922/05/2022Half IronMan 70.3 d'Aix en Provence (13) - Triathlon L Amandine GRIMARD6318565h23'14''F30-34865Sa course
138 22/05/2022Half IronMan 70.3 d'Aix en Provence (13) - Triathlon L Robin CABARET9518564h44'09''M30-342894Sa course
275 22/05/2022IronMan d'Aix en Provence (13) - Triathlon XXL Patrick MANZI5344813h11'44''M50-543231Sa course
152 22/05/2022IronMan d'Aix en Provence (13) - Triathlon XXL Florian PANNIER7044811h41'27''M40-443062Sa course
525 22/05/2022Half IronMan 70.3 d'Aix en Provence (13) - Triathlon L Yann LEROOY018565h17'02''M25-298671Sa course
5002722/05/2022Half IronMan 70.3 d'Aix en Provence (13) - Triathlon L Estelle MOLAS6818565h14'35''F30-34673Sa course
838 22/05/2022Half IronMan 70.3 d'Aix en Provence (13) - Triathlon L Jean-david LONG6118565h37'16''M35-3911654Sa course
15 15/05/2022SwimRun de La Ciotat (13) - S Alain AIELLO70361h26'20''063Sa course
71 15/05/2022Triathlon de La Ciotat (13) - S Christophe CYPCURA02011h22'19''MV3766Sa course
87615/05/2022Triathlon de La Ciotat (13) - S Léa GUYON322011h24'00''FS3358Sa course
33 15/05/2022Triathlon de La Ciotat (13) - S Cyril CALY742011h15'37''MS3586Sa course
8 15/05/2022Triathlon de La Ciotat (13) - S Guillaume GONZALEZ02011h08'17''MS22123Sa course
38 15/05/2022Triathlon de La Ciotat (13) - S Yann LEROOY02011h16'55''MS2983Sa course
46 15/05/2022Triathlon de La Ciotat (13) - S Alain AIELLO702011h18'51''MV5279Sa course
45 15/05/2022Triathlon de La Ciotat (13) - S Jean-david LONG612011h18'49''MS4579Sa course
163 15/05/2022Triathlon de La Ciotat (13) - S Laurent BACHELIER02011h39'09''MS42020Sa course
16 15/05/2022Triathlon de La Ciotat (13) - S Clément ALLARD872011h11'38''MS2397Sa course
1622415/05/2022Triathlon de La Ciotat (13) - S Claire CHEVALIER02011h38'56''FV3420Sa course
67 15/05/2022Triathlon de La Ciotat (13) - S Laurent MARTIN722011h21'40''MV4368Sa course
40 15/05/2022Triathlon de La Ciotat (13) - S François EXPOSITO562011h17'59''MV1882Sa course
123 08/05/2022Triathlon de la Côte Bleue (13) - M Patrick MANZI533362h22'37''MV31363Sa course
317 08/05/2022Triathlon de la Côte Bleue (13) - M Sébastien SAVARY03363h08'39''MV1353Sa course
150 08/05/2022Triathlon de la Côte Bleue (13) - M Jean-david LONG613362h26'07''MS41755Sa course
28 08/05/2022Triathlon de la Côte Bleue (13) - M Clément ALLARD873362h06'03''MS2795Sa course
10 08/05/2022Triathlon de la Côte Bleue (13) - M Romain TARENNE1013361h58'55''MS42112Sa course
181 08/05/2022Triathlon de la Côte Bleue (13) - M Jean laurent GARNIER353362h30'40''MV32245Sa course
36 08/05/2022Triathlon de la Côte Bleue (13) - S Laurent MARTIN721851h11'14''MV4183Sa course
125 08/05/2022Triathlon de la Côte Bleue (13) - M Anton FERT423362h22'47''MS32663Sa course
77 08/05/2022Triathlon de la Côte Bleue (13) - M François EXPOSITO563362h17'43''MV11178Sa course
61 08/05/2022Triathlon de la Côte Bleue (13) - M Thomas LE GOFF03362h13'39''MS31683Sa course
23 08/05/2022Triathlon de la Côte Bleue (13) - M Léo HERMOUET03362h03'38''MS3797Sa course
97508/05/2022Triathlon de la Côte Bleue (13) - M Amandine GRIMARD633362h19'50''FS3271Sa course
40 08/05/2022Triathlon de Vins-sur-Caramy (83) - M Alain AIELLO70932h37'38''MVE2058Sa course
20 08/05/2022Triathlon de la Côte Bleue (13) - M Robin CABARET953362h02'37''MS3698Sa course
151 08/05/2022Triathlon de la Côte Bleue (13) - M Christophe CYPCURA03362h26'08''MV31654Sa course
1901708/05/2022Triathlon de la Côte Bleue (13) - M Léa GUYON323362h32'04''FS3542Sa course
56 08/05/2022Triathlon de la Côte Bleue (13) - M Cyril CALY743362h12'56''MS31485Sa course
11 08/05/2022Triathlon de la Côte Bleue (13) - M Guillaume GONZALEZ03361h59'36''MS24104Sa course
579 01/05/2022Triathlon de Cannes (06) - L Nicolas LUDMANN409585h44'43''MV29837Sa course
531 01/05/2022Triathlon de Cannes (06) - L Laurent MARTIN729585h39'24''MV42543Sa course
425 30/04/2022Triathlon de Cannes (06) - M Jean laurent GARNIER359062h28'19''MV33352Sa course
59 24/04/2022Triathlon de Saint Tropez (83) - S François EXPOSITO562091h19'30''MV1872Sa course
1841703/04/2022Duathlon de Valence (26) - S Amandine GRIMARD633321h11'40''FD31143Sa course
1701103/04/2022Duathlon de Valence (26) - S Estelle MOLAS683321h10'37''FD3647Sa course
15 20/03/2022Duathlon de Salon (13) - S François EXPOSITO56681h06'09''MVE282Sa course
66 20/03/2022Duathlon des Vignobles (83) - S Guillaume GONZALEZ01641h00'10''MS21260Sa course
69 20/03/2022Duathlon des Vignobles (83) - S Thomas LE GOFF01641h00'37''MS31958Sa course
108420/03/2022Duathlon des Vignobles (83) - S Amandine GRIMARD631641h07'59''FS3233Sa course
62 20/03/2022Duathlon des Vignobles (83) - S Robin CABARET951641h00'01''MS31762Sa course
107320/03/2022Duathlon des Vignobles (83) - S Estelle MOLAS681641h07'59''FS3134Sa course
32 20/03/2022Duathlon de Salon (13) - S Jean-david LONG61681h12'05''MSE1855Sa course
24 06/03/2022Duathlon de la Fermière (13) - S Thomas LE GOFF01111h08'55''MS3681Sa course
69406/03/2022Duathlon de la Fermière (13) - S Léa GUYON321111h24'00''FS3237Sa course
39 06/03/2022Duathlon de la Fermière (13) - S Jean-david LONG611111h14'34''MS4766Sa course
68306/03/2022Duathlon de la Fermière (13) - S Alice HERMET01111h23'52''FS2138Sa course
44 06/03/2022Duathlon de la Fermière (13) - S Cyril CALY741111h16'36''MS3861Sa course
20 06/03/2022Duathlon de la Fermière (13) - S Guillaume GONZALEZ01111h07'39''MS2285Sa course
38 06/03/2022Duathlon de la Fermière (13) - S François EXPOSITO561111h14'18''MV1567Sa course
29 06/03/2022Duathlon de la Fermière (13) - S Romain TARENNE1011111h10'05''MS4576Sa course
85 06/03/2022Duathlon de la Fermière (13) - S Davide ALESSIO01111h29'07''MV11523Sa course
65 06/03/2022Duathlon de la Fermière (13) - S Nicolas LUDMANN401111h23'32''MV2541Sa course
122 27/02/2022Duathlon des Princes d'Aragon (83) - S François EXPOSITO562841h30'46''HV1758Sa course
138627/02/2022Duathlon des Princes d'Aragon (83) - S Estelle MOLAS682841h33'29''FS3252Sa course
141 27/02/2022Duathlon des Princes d'Aragon (83) - S Jean-david LONG612841h33'37''MS41451Sa course
108 27/02/2022Duathlon des Princes d'Aragon (83) - S Julien LORENZO862841h28'50''MS41363Sa course
191 27/02/2022Duathlon des Princes d'Aragon (83) - S Alain AIELLO702841h39'17''HV5333Sa course
171 27/02/2022Duathlon des Princes d'Aragon (83) - S Cyril CALY742841h36'09''HS3240Sa course
73 27/02/2022Duathlon des Princes d'Aragon (83) - S Thomas LE GOFF02841h24'48''MS31576Sa course
46 27/02/2022Duathlon des Princes d'Aragon (83) - S Guillaume GONZALEZ02841h22'25''MS21286Sa course
1541227/02/2022Duathlon des Princes d'Aragon (83) - S Amandine GRIMARD632841h34'43''FS3546Sa course
65 27/02/2022Duathlon des Princes d'Aragon (83) - S Robin CABARET952841h23'56''MS31379Sa course
1972727/02/2022Duathlon des Princes d'Aragon (83) - S Alice HERMET02841h41'25''FS2631Sa course
Pas de résultats pour ce club

Résultats des TRI-CUP de la saison

Résultats du tri-cup-l

AnnéeCltClt/F TCNomIPRGAClt/GA
202240926178 Laurent MARTIN0MV412
2022503130 Alain AIELLO70MV510

Résultats des TRI-CUP de la saison

Résultats du tri-cup-m

AnnéeCltClt/F TCNomIPRGAClt/GA
2022587210 Alain AIELLO70MV57
2022682189 Anton FERT42MS3106

Résultats des TRI-CUP des saisons passées

Résultats du TRI-CUP LD

TRI-CUPAnnéeCltClt/F TCNomIPRGAClt/GA
TRI-CUP LD2021311102 Alain AIELLO68MV417
TRI-CUP LD2019669165 Alain AIELLO68MV428
TRI-CUP LD2019750136 Quentin LABBE0MS397
TRI-CUP LD2018674183 Alain AIELLO68MV423

Résultats du TRI-CUP M

TRI-CUPAnnéeCltClt/F TCNomIPRGAClt/GA
TRI-CUP M2021266212 Alain AIELLO68MV49
TRI-CUP M2019332270 Clément GAGNAIRE0MS137
TRI-CUP M201943012253 Cyril CALY0MS284
TRI-CUP M2019543236 Alain AIELLO68MV415
TRI-CUP M201962124220 Alice GAVOILLE0FS16
TRI-CUP M201962925219 François EXPOSITO0MV1100
TRI-CUP M2019889175 Jean philippe BOUSQUET73MS4145
TRI-CUP M20191044149 Florian PANNIER70MS4166
TRI-CUP M2019136913758 Florence PINATEL0FV39
TRI-CUP M2018445231 Alain AIELLO68MV45
TRI-CUP M2018692174 Guillaume FAURE89MS4106

Podiums du club

Clt/GAGADateEpreuveNomIPRClt FCltNbTempsIP
1MV509/10/2022Sardines Titus Triathlon (13) - MAlain AIELLO70994852h57'48''80RésultatsSa course
3M SM 08/10/2022Sardines Titus Triathlon (13) - Aquathlon XSJean-david LONG61367418'54''54RésultatsSa course
1FS302/10/2022Triathlon de Carqueiranne (83) - SAmandine GRIMARD635862991h25'28''72RésultatsSa course
1MS202/10/2022Triathlon de Carqueiranne (83) - SGuillaume GONZALEZ062991h11'47''156RésultatsSa course
3MS202/10/2022Triathlon de Carqueiranne (83) - SClément ALLARD87152991h14'52''101RésultatsSa course
1MV202/10/2022BayMan (50) - Triathlon M 104032h23'38''116RésultatsSa course
3MS302/10/2022Triathlon de Carqueiranne (83) - SRobin CABARET9582991h12'25''135RésultatsSa course
3MS325/09/2022Istr'M (13) - Triathlon MRobin CABARET9511922h13'23''92RésultatsSa course
2MS418/09/2022VentouxMan (84) - Triathlon LRomain TARENNE101193035h52'30''98RésultatsSa course
1MV204/09/2022Triathlon de Carentan (50) - S 72491h13'34''138RésultatsSa course
2MV528/08/2022EDF VercorsMan (26) - Triathlon SAlain AIELLO701193221h38'50''63RésultatsSa course
2MV527/08/2022EDF VercorsMan (26) - Triathlon XLAlain AIELLO701422548h28'57''43RésultatsSa course
2MV509/07/2022Triathlon des Gorges - Ardèche et Gard (07) - LAlain AIELLO702324623h53'32''49RésultatsSa course
3MS219/06/2022Triathlon de Carpentras (84) - S en CLMGuillaume GONZALEZ0161741h05'03''95RésultatsSa course
2MS215/05/2022Triathlon de La Ciotat (13) - SGuillaume GONZALEZ082011h08'17''123RésultatsSa course
2MV515/05/2022Triathlon de La Ciotat (13) - SAlain AIELLO70462011h18'51''79RésultatsSa course
3FS315/05/2022Triathlon de La Ciotat (13) - SLéa GUYON326872011h24'00''58RésultatsSa course
3MS215/05/2022Triathlon de La Ciotat (13) - SClément ALLARD87162011h11'38''97RésultatsSa course
3MV415/05/2022Triathlon de La Ciotat (13) - S 672011h21'40''68RésultatsSa course
2MS408/05/2022Triathlon de la Côte Bleue (13) - MRomain TARENNE101103361h58'55''112RésultatsSa course
1MV408/05/2022Triathlon de la Côte Bleue (13) - S 361851h11'14''83RésultatsSa course
2FS308/05/2022Triathlon de la Côte Bleue (13) - MAmandine GRIMARD635973362h19'50''71RésultatsSa course
1FS320/03/2022Duathlon des Vignobles (83) - SEstelle MOLAS6831071641h07'59''34RésultatsSa course
2FS320/03/2022Duathlon des Vignobles (83) - SAmandine GRIMARD6341081641h07'59''33RésultatsSa course
2MVE20/03/2022Duathlon de Salon (13) - S 15681h06'09''82RésultatsSa course
2FS306/03/2022Duathlon de la Fermière (13) - SLéa GUYON324691111h24'00''37RésultatsSa course
1FS206/03/2022Duathlon de la Fermière (13) - SAlice HERMET03681111h23'52''38RésultatsSa course
2MS206/03/2022Duathlon de la Fermière (13) - SGuillaume GONZALEZ0201111h07'39''85RésultatsSa course
2FS327/02/2022Duathlon des Princes d'Aragon (83) - SEstelle MOLAS6861382841h33'29''52RésultatsSa course
3HV527/02/2022Duathlon des Princes d'Aragon (83) - SAlain AIELLO701912841h39'17''33RésultatsSa course
2HS327/02/2022Duathlon des Princes d'Aragon (83) - S 1712841h36'09''40RésultatsSa course
3MV424/10/2021Triathlon de Saint Cyr sur Mer (83) - MAlain AIELLO70752352h47'35''69RésultatsSa course
2MS417/10/2021Triathlon de la Côte Bleue (13) - MRomain TARENNE101212722h05'15''96RésultatsSa course
2MV417/10/2021Triathlon de la Côte Bleue (13) - MAlain AIELLO70752722h17'34''74RésultatsSa course
2FS303/10/2021Sardines Titus Duathlon (13) - MEstelle MOLAS6891574262h53'15''62RésultatsSa course
1FS219/09/2021VentouxMan (84) - Triathlon LAmandine GRIMARD6371483297h40'50''53RésultatsSa course
2FS319/09/2021VentouxMan (84) - Triathlon LEstelle MOLAS682733297h02'10''78RésultatsSa course
3FV306/06/2021TriGames - Cagnes-Sur-Mer (06) - MClaire CHEVALIER0412844183h33'56''33RésultatsSa course
3FV418/10/2020TriGames de Mandelieu (06) - MGeneviève DAVID20513184074h18'48''21RésultatsSa course
2MV418/10/2020TriGames de Mandelieu (06) - MLionel JEAN68744073h22'43''83RésultatsSa course
2FV427/09/2020TriGames - Cagnes-Sur-Mer (06) - MGeneviève DAVID203220424900'00''13RésultatsSa course
3FS213/10/2019Sardines Titus Triathlon (13) - MEstelle MOLAS68152045013h09'19''58RésultatsSa course
2FS105/10/2019NatureMan VAR (83) - Triathlon LAlice GAVOILLE0923210716h15'38''78RésultatsSa course
3MV421/07/2019Triathlon de Marseille (13) - LAlain AIELLO70661335h39'09''47RésultatsSa course
2FV321/07/2019Triathlon de Marseille (13) - MFlorence PINATEL0644746703h07'17''29RésultatsSa course
1FS123/06/2019Triathlon des Vannades (04) - MAlice GAVOILLE061534442h59'18''65RésultatsSa course
2MV416/06/2019Triathlon du Pays Salonais (13) - MAlain AIELLO70391812h20'43''80RésultatsSa course
2MV401/06/2019FrenchMan Triathlon - Carcans (33) - XXLAlain AIELLO7014446511h29'41''70RésultatsSa course
2MV419/05/2019Island Man - La Ciotat (13) - Triathlon LAlain AIELLO70452255h09'40''80RésultatsSa course
3FS119/05/2019TriGames de Mandelieu (06) - MAlice GAVOILLE0121454382h59'26''66RésultatsSa course
2MV402/09/2018Istr'M (13) - Triathlon MAlain AIELLO70451892h36'34''76RésultatsSa course
3MV422/07/2018Triathlon de Marseille (13) - LAlain AIELLO70582185h33'35''69RésultatsSa course
3MV424/06/2018Triathlon des Vannades (04) - MAlain AIELLO701043642h53'22''72RésultatsSa course
2MV420/05/2018Island Man - La Ciotat (13) - Triathlon LAlain AIELLO70694065h03'59''83RésultatsSa course
3MV406/05/2018Triathlon de la Corniche d'Or (83) - MAlain AIELLO70862842h44'28''70RésultatsSa course
1MV408/10/2017Sardines Titus Triathlon (13) - MAlain AIELLO70763842h53'17''81RésultatsSa course
3MV403/09/2017Istr'M (13) - Triathlon MAlain AIELLO70421482h19'02''73RésultatsSa course
2MV410/06/2017AlpsMan Xtrem - Triathlon XXL du Lac d'Annecy (74)Alain AIELLO709716715h10'39''43RésultatsSa course
2MV228/05/2017Triathlon de Vins-sur-Caramy (83) - MAlain AIELLO70521712h34'30''70RésultatsSa course
1FV204/09/2016Istr'M (13) - Triathlon MClaire CHEVALIER0121091433h06'10''17RésultatsSa course
2MV304/09/2016Istr'M (13) - Triathlon MAlain AIELLO70261432h34'21''83RésultatsSa course
3MV311/06/2016Triathlon du Salagou (34) - LAlain AIELLO70653564h54'33''83RésultatsSa course
2MV315/05/2016Triathlon de Vins-sur-Caramy (83) - MAlain AIELLO70511682h31'55''71RésultatsSa course
2MV311/10/2015Sardines Titus Triathlon (13) - MAlain AIELLO70803762h52'41''79RésultatsSa course
3MV307/06/2015VentouxMan (84) - Triathlon LAlain AIELLO70804786h20'23''85RésultatsSa course
1MV317/05/2015Triathlon de Vins-sur-Caramy (83) - MAlain AIELLO70301272h27'48''76RésultatsSa course
2MV302/06/2013Triathlon de Hyères (83) - LAlain AIELLO701034155h36'58''76RésultatsSa course
1MV202/10/2011Island Man - La Ciotat (13) - Triathlon LChristian PARON-FRANCESCHINI071534h28'42''123RésultatsSa course
2MV229/05/2011Triathlon du Lubéron (84) - LChristian PARON-FRANCESCHINI0121624h45'27''98RésultatsSa course
3MVE30/05/2010Triathlon du Lubéron (84) - LChristian PARON-FRANCESCHINI0142384h38'02''100RésultatsSa course
3MV222/06/2008Triathlon du Lac des Sapins (69) - LAlain AIELLO70632856h16'13''79RésultatsSa course
2MV225/05/2008Triathlon du Lubéron (84) - LAlain AIELLO70431724h41'23''77RésultatsSa course

Résultats aux championnats de France

DateNomIPRClt FCltNbTempsGAClt/GA
06/06/2021Lionel JEAN682804255h36'41''MV414RésultatsSa course
06/06/2021Thomas LE GOFF03204255h45'43''MS340RésultatsSa course
06/06/2021Alain AIELLO704114256h07'28''MV423RésultatsSa course
27/09/2020Lionel JEAN681262306h17'28''MV410RésultatsSa course
07/07/2018Alain AIELLO702756485h54'50''MV414RésultatsSa course
07/07/2018Pierre CAMINADE02996486h00'48''MS332RésultatsSa course
19/05/2012Alain AIELLO701235435h13'07''MV38RésultatsSa course
19/05/2012Olivier MELQUIOND02445435h39'21''MV150RésultatsSa course
19/05/2012Christian PARON-FRANCESCHINI0685435h00'21''MV26RésultatsSa course

Coureurs actuels du Club

Romain TARENNE
IPR : 101
Catégorie de niveau : Elite 3ème classe
Robin CABARET
IPR : 95
Catégorie de niveau : 1ère catégorie
Clément ALLARD
IPR : 87
Catégorie de niveau : 2ème catégorie
Julien LORENZO
IPR : 86
Catégorie de niveau : 2ème catégorie
Jean philippe BOUSQUET
IPR : 81
Catégorie de niveau : 2ème catégorie
Florian PANNIER
IPR : 70
Catégorie de niveau : 3ème catégorie
Alain AIELLO
IPR : 70
Catégorie de niveau : 3ème catégorie
Estelle MOLAS
IPR : 68
Catégorie de niveau : 2ème catégorie
Amandine GRIMARD
IPR : 63
Catégorie de niveau : 2ème catégorie
Jean-david LONG
IPR : 61
Catégorie de niveau : 3ème catégorie
Patrick MANZI
IPR : 53
Catégorie de niveau : 4ème catégorie
Anton FERT
IPR : 42
Catégorie de niveau : 4ème catégorie
Nicolas LUDMANN
IPR : 40
Catégorie de niveau : 4ème catégorie
Jean laurent GARNIER
IPR : 35
Catégorie de niveau : 4ème catégorie
Léa GUYON
IPR : 32
Catégorie de niveau : 4ème catégorie
Pierre DENIEULLE
IPR : N/A
Catégorie de niveau : Non classé
Claire CHEVALIER
IPR : N/A
Catégorie de niveau : Non classée
Laurent BACHELIER
IPR : N/A
Catégorie de niveau : Non classé
Pierre CAMINADE
IPR : N/A
Catégorie de niveau : Non classé
Alain SCHMITT
IPR : N/A
Catégorie de niveau : Non classé
Sébastien SAVARY
IPR : N/A
Catégorie de niveau : Non classé
Guillaume GONZALEZ
IPR : N/A
Catégorie de niveau : Non classé
Christophe CYPCURA
IPR : N/A
Catégorie de niveau : Non classé
Thomas LE GOFF
IPR : N/A
Catégorie de niveau : Non classé
Alice HERMET
IPR : N/A
Catégorie de niveau : Non classée
Yann LEROOY
IPR : N/A
Catégorie de niveau : Non classé
Léo HERMOUET
IPR : N/A
Catégorie de niveau : Non classé
IPR : N/A
Catégorie de niveau : 
IPR : N/A
Catégorie de niveau : 
IPR : N/A
Catégorie de niveau : 
IPR : N/A
Catégorie de niveau :